sat.trackr.live / text

‹ back to catalog

STARLINK-4386

NORAD 53649 · 2022-105B

PAYLOAD ACTIVE UNKNOWN

§ Identity

Operator
Country
US
Launch date
2022-08-31
Launch site
AFWTR
Launch vehicle
Mass (kg)
RCS (m²)

Purposes: comms

External: N2YO · Heavens-Above · Gunter

§ Orbital elements

Epoch: 2026-05-25T04:00:03.998880Z

Period
93.79 min
Inclination
97.6032°
Eccentricity
0.0002184
Mean motion
15.35314319 rev/d
Perigee alt
458.5 km
Apogee alt
461.5 km
Semi-major
6,838.1 km
B*
2.5041e-3
RAAN
28.0883°
Arg perigee
98.9046°
Mean anomaly
194.1461°
Rev number
581

§ Raw data

STARLINK-43861 53649U 22105B   26145.16671295  .00086677  00000+0  25041-2 0  99992 53649  97.6032  28.0883 0002184  98.9046 194.1461 15.35314319  5811

JSON: /api/v1/satellites/53649 · /tle

For live sub-satellite position, see the globe view (requires WebGL).

§ Visibility from observer

Set your observer location to see the next 7 days of passes ≥ 10°. The values pass through the URL so the page stays shareable.

No JS? Fill the form by hand. The geolocation button needs JavaScript.